EDT,Max TemperatureF,Mean TemperatureF,Min TemperatureF,Max Dew PointF,MeanDew PointF,Min DewpointF,Max Humidity, Mean Humidity, Min Humidity, Max Sea Level PressureIn, Mean Sea Level PressureIn, Min Sea Level PressureIn, Max VisibilityMiles, Mean VisibilityMiles, Min VisibilityMiles, Max Wind SpeedMPH, Mean Wind SpeedMPH, Max Gust SpeedMPH,PrecipitationIn, CloudCover, Events, WindDirDegrees
2013-6-1,88,78,68,70,66,61,90,68,46,29.96,29.86,29.77,10,9,1,32,10,40,0.52,7,Rain-Thunderstorm,234
2013-6-2,77,67,56,68,62,51,93,72,50,29.89,29.76,29.70,10,9,2,30,14,41,0.41,6,Rain-Thunderstorm,241
2013-6-3,65,58,51,49,44,38,77,58,39,30.03,29.97,29.91,10,10,10,18,9,22,0.00,4,,289
2013-6-4,67,58,48,45,40,35,86,59,32,30.18,30.13,30.05,10,10,10,18,7,24,0.00,1,,299
2013-6-5,69,59,49,50,44,36,86,63,39,30.24,30.18,30.11,10,10,10,17,7,21,T,7,,51
2013-6-6,59,57,55,58,53,45,93,78,62,30.09,29.96,29.86,10,6,2,18,9,22,1.70,8,Rain-Thunderstorm,105
2013-6-7,63,60,56,58,57,55,100,92,84,29.87,29.83,29.80,10,4,0,9,4,14,0.09,8,Fog-Rain,341
2013-6-8,65,61,56,57,56,53,100,86,72,30.09,29.93,29.82,10,6,0,13,6,16,0.03,8,Fog-Rain,291
2013-6-9,75,65,54,56,53,50,93,72,50,30.20,30.16,30.09,10,10,10,10,6,15,0.00,5,,219
2013-6-10,72,67,62,64,60,54,93,78,63,30.13,29.93,29.72,10,9,2,16,8,20,0.13,8,Rain,123
2013-6-11,69,64,59,65,61,53,93,81,68,29.86,29.72,29.65,10,8,1,20,9,25,0.15,8,Rain,282
2013-6-12,75,64,53,57,54,50,100,72,44,29.94,29.88,29.78,10,10,10,12,4,15,T,3,Rain,26
2013-6-13,67,61,55,59,57,54,97,83,68,29.80,29.64,29.53,10,8,1,24,11,36,1.43,8,Rain,68
2013-6-14,74,63,52,58,55,51,100,75,49,29.99,29.89,29.80,10,8,0,15,8,20,0.00,5,Fog,301
2013-6-15,75,64,52,55,50,44,96,66,35,30.06,30.01,29.96,10,10,9,16,8,21,0.00,4,,260
2013-6-16,77,69,61,66,60,52,93,78,63,29.96,29.79,29.71,10,8,2,17,10,32,0.24,6,Rain,238
2013-6-17,79,70,60,64,60,55,97,75,52,29.94,29.87,29.83,10,10,6,18,7,26,0.22,4,Rain-Thunderstorm,283
2013-6-18,69,63,56,58,50,44,90,68,45,30.04,29.98,29.91,10,10,10,18,7,24,0.03,5,,45
2013-6-19,67,59,50,50,44,37,77,56,34,30.22,30.15,30.04,10,10,10,13,6,18,0.00,1,,36
2013-6-20,76,61,46,50,45,39,93,62,31,30.28,30.24,30.22,10,10,10,16,4,18,0.00,1,,27
2013-6-21,82,67,52,56,52,49,89,61,33,30.29,30.24,30.18,10,10,10,13,4,15,0.00,3,,168
2013-6-22,86,73,60,71,64,57,90,71,51,30.18,30.10,30.01,10,10,10,17,6,21,T,6,,214
2013-6-23,90,81,71,71,68,65,90,70,50,30.07,30.04,30.00,10,10,10,23,10,28,T,6,,237
2013-6-24,87,79,70,68,65,62,90,69,48,30.04,30.00,29.94,10,10,10,24,11,29,0.00,4,,238
2013-6-25,83,77,70,68,66,62,79,69,58,29.95,29.88,29.80,10,10,10,23,11,32,T,6,Rain,242
2013-6-26,85,77,69,68,65,63,90,71,51,29.83,29.81,29.78,10,10,10,18,9,24,T,6,,256
2013-6-27,81,73,65,70,66,63,93,80,67,29.81,29.73,29.64,10,8,1,20,4,25,0.37,7,Rain,164
2013-6-28,68,65,62,66,63,60,93,90,87,29.62,29.56,29.52,10,8,2,25,6,26,0.50,8,Rain,20
2013-6-29,77,70,62,64,62,60,93,79,64,29.70,29.57,29.51,10,9,2,13,3,16,0.45,7,Rain,45
2013-6-30,77,69,60,64,61,58,100,80,60,29.94,29.82,29.71,10,10,8,14,5,17,T,5,,28